30/04/2024 21:00:00,0.241
30/04/2024 21:15:00,0.239
30/04/2024 21:30:00,0.237
30/04/2024 21:45:00,0.234
30/04/2024 22:00:00,0.234
30/04/2024 22:15:00,0.232
30/04/2024 22:30:00,0.23
30/04/2024 22:45:00,0.229
30/04/2024 23:00:00,0.228
30/04/2024 23:15:00,0.224
30/04/2024 23:30:00,0.223
30/04/2024 23:45:00,0.224
01/05/2024 00:00:00,0.221
01/05/2024 00:15:00,0.22
01/05/2024 00:30:00,0.22
01/05/2024 00:45:00,0.219
01/05/2024 01:00:00,0.217
01/05/2024 01:15:00,0.215
01/05/2024 01:30:00,0.214
01/05/2024 01:45:00,0.214
01/05/2024 02:00:00,0.213
01/05/2024 02:15:00,0.211
01/05/2024 02:30:00,0.211
01/05/2024 02:45:00,0.21
01/05/2024 03:00:00,0.209
01/05/2024 03:15:00,0.208
01/05/2024 03:30:00,0.206
01/05/2024 03:45:00,0.206
01/05/2024 04:00:00,0.205
01/05/2024 04:15:00,0.205
01/05/2024 04:30:00,0.205
01/05/2024 04:45:00,0.203
01/05/2024 05:00:00,0.204
01/05/2024 05:15:00,0.201
01/05/2024 05:30:00,0.202
01/05/2024 05:45:00,0.2
01/05/2024 06:00:00,0.201
01/05/2024 06:15:00,0.199
01/05/2024 06:30:00,0.198
01/05/2024 06:45:00,0.199
01/05/2024 07:00:00,0.198
01/05/2024 07:15:00,0.197
01/05/2024 07:30:00,0.196
01/05/2024 07:45:00,0.194
01/05/2024 08:00:00,0.195
01/05/2024 08:15:00,0.194
01/05/2024 08:30:00,0.195
01/05/2024 08:45:00,0.194
01/05/2024 09:00:00,0.193
01/05/2024 09:15:00,0.192
01/05/2024 09:30:00,0.192
01/05/2024 09:45:00,0.191
01/05/2024 10:00:00,0.193
01/05/2024 10:15:00,0.191
01/05/2024 10:30:00,0.192
01/05/2024 10:45:00,0.192
01/05/2024 11:00:00,0.192
01/05/2024 11:15:00,0.19
01/05/2024 11:30:00,0.191
01/05/2024 11:45:00,0.19
01/05/2024 12:00:00,0.188
01/05/2024 12:15:00,0.188
01/05/2024 12:30:00,0.187
01/05/2024 12:45:00,0.188
01/05/2024 13:00:00,0.188
01/05/2024 13:15:00,0.187
01/05/2024 13:30:00,0.186
01/05/2024 13:45:00,0.186
01/05/2024 14:00:00,0.186
01/05/2024 14:15:00,0.183
01/05/2024 14:30:00,0.184
01/05/2024 14:45:00,0.183
01/05/2024 15:00:00,0.182
01/05/2024 15:15:00,0.181
01/05/2024 15:30:00,0.181
01/05/2024 15:45:00,0.181
01/05/2024 16:00:00,0.18
01/05/2024 16:15:00,0.179
01/05/2024 16:30:00,0.18
01/05/2024 16:45:00,0.178
01/05/2024 17:00:00,0.179
01/05/2024 17:15:00,0.178
01/05/2024 17:30:00,0.177
01/05/2024 17:45:00,0.177
01/05/2024 18:00:00,0.177
01/05/2024 18:15:00,0.175
01/05/2024 18:30:00,0.175
01/05/2024 18:45:00,0.176
01/05/2024 19:00:00,0.175
01/05/2024 19:15:00,0.176
01/05/2024 19:30:00,0.174
01/05/2024 19:45:00,0.174
01/05/2024 20:00:00,0.174
01/05/2024 20:15:00,0.173
01/05/2024 20:30:00,0.174
01/05/2024 20:45:00,0.175
01/05/2024 21:00:00,0.174
01/05/2024 21:15:00,0.173
01/05/2024 21:30:00,0.174
01/05/2024 21:45:00,0.174
01/05/2024 22:00:00,0.174
01/05/2024 22:15:00,0.173
01/05/2024 22:30:00,0.173
01/05/2024 22:45:00,0.173
01/05/2024 23:00:00,0.174
01/05/2024 23:15:00,0.174
01/05/2024 23:30:00,0.172
01/05/2024 23:45:00,0.172
02/05/2024 00:00:00,0.173
02/05/2024 00:15:00,0.174
02/05/2024 00:30:00,0.174
02/05/2024 00:45:00,0.173
02/05/2024 01:00:00,0.174
02/05/2024 01:15:00,0.174
02/05/2024 01:30:00,0.173
02/05/2024 01:45:00,0.173
02/05/2024 02:00:00,0.173
02/05/2024 02:15:00,0.171
02/05/2024 02:30:00,0.172
02/05/2024 02:45:00,0.172
02/05/2024 03:00:00,0.172
02/05/2024 03:15:00,0.171
02/05/2024 03:30:00,0.171
02/05/2024 03:45:00,0.171
02/05/2024 04:00:00,0.171
02/05/2024 04:15:00,0.17
02/05/2024 04:30:00,0.171
02/05/2024 04:45:00,0.17
02/05/2024 05:00:00,0.169
02/05/2024 05:15:00,0.169
02/05/2024 05:30:00,0.168
02/05/2024 05:45:00,0.169
02/05/2024 06:00:00,0.169
02/05/2024 06:15:00,0.169
02/05/2024 06:30:00,0.168
02/05/2024 06:45:00,0.168
02/05/2024 07:00:00,0.168
02/05/2024 07:15:00,0.167
02/05/2024 07:30:00,0.167
02/05/2024 07:45:00,0.167
02/05/2024 08:00:00,0.166
02/05/2024 08:15:00,0.166
02/05/2024 08:30:00,0.166
02/05/2024 08:45:00,0.166
02/05/2024 09:00:00,0.165
02/05/2024 09:15:00,0.166
02/05/2024 09:30:00,0.167
02/05/2024 09:45:00,0.165
02/05/2024 10:00:00,0.166
02/05/2024 10:15:00,0.166
02/05/2024 10:30:00,0.165
02/05/2024 10:45:00,0.166
02/05/2024 11:00:00,0.165
02/05/2024 11:15:00,0.166
02/05/2024 11:30:00,0.165
02/05/2024 11:45:00,0.166
02/05/2024 12:00:00,0.164
02/05/2024 12:15:00,0.163
02/05/2024 12:30:00,0.164
02/05/2024 12:45:00,0.163
02/05/2024 13:00:00,0.163
02/05/2024 13:15:00,0.161
02/05/2024 13:30:00,0.162
02/05/2024 13:45:00,0.162
02/05/2024 14:00:00,0.162
02/05/2024 14:15:00,0.162
02/05/2024 14:30:00,0.16
02/05/2024 14:45:00,0.159
02/05/2024 15:00:00,0.159
02/05/2024 15:15:00,0.158
02/05/2024 15:30:00,0.158
02/05/2024 15:45:00,0.156
02/05/2024 16:00:00,0.156
02/05/2024 16:15:00,0.155
02/05/2024 16:30:00,0.154
02/05/2024 16:45:00,0.153
02/05/2024 17:00:00,0.153
02/05/2024 17:15:00,0.152
02/05/2024 17:30:00,0.15
02/05/2024 17:45:00,0.148
02/05/2024 18:00:00,0.148
02/05/2024 18:15:00,0.148
02/05/2024 18:30:00,0.149
02/05/2024 18:45:00,0.147
02/05/2024 19:00:00,0.146
02/05/2024 19:15:00,0.143
02/05/2024 19:30:00,0.143
02/05/2024 19:45:00,0.142
02/05/2024 20:00:00,0.142
02/05/2024 20:15:00,0.14
02/05/2024 20:30:00,0.138
02/05/2024 20:45:00,0.136
02/05/2024 21:00:00,0.136
02/05/2024 21:15:00,0.136
02/05/2024 21:30:00,0.134
02/05/2024 21:45:00,0.132
02/05/2024 22:00:00,0.131
02/05/2024 22:15:00,0.131
02/05/2024 22:30:00,0.13
02/05/2024 22:45:00,0.131
02/05/2024 23:00:00,0.13
02/05/2024 23:15:00,0.13
02/05/2024 23:30:00,0.129
02/05/2024 23:45:00,0.128
03/05/2024 00:00:00,0.127
03/05/2024 00:15:00,0.127
03/05/2024 00:30:00,0.127
03/05/2024 00:45:00,0.127
03/05/2024 01:00:00,0.127
03/05/2024 01:15:00,0.128
03/05/2024 01:30:00,0.127
03/05/2024 01:45:00,0.125
03/05/2024 02:00:00,0.125
03/05/2024 02:15:00,0.123
03/05/2024 02:30:00,0.123
03/05/2024 02:45:00,0.123
03/05/2024 03:00:00,0.125
03/05/2024 03:15:00,0.126
03/05/2024 03:30:00,0.126
03/05/2024 03:45:00,0.126
03/05/2024 04:00:00,0.125
03/05/2024 04:15:00,0.127
03/05/2024 04:30:00,0.128
03/05/2024 04:45:00,0.128
03/05/2024 05:00:00,0.128
03/05/2024 05:15:00,0.129
03/05/2024 05:30:00,0.129
03/05/2024 05:45:00,0.129
03/05/2024 06:00:00,0.131
03/05/2024 06:15:00,0.13
03/05/2024 06:30:00,0.13
03/05/2024 06:45:00,0.129
03/05/2024 07:00:00,0.129
03/05/2024 07:15:00,0.129
03/05/2024 07:30:00,0.129
03/05/2024 07:45:00,0.126
03/05/2024 08:00:00,0.126
03/05/2024 08:15:00,0.124
03/05/2024 08:30:00,0.124
03/05/2024 08:45:00,0.123
03/05/2024 09:00:00,0.124
03/05/2024 09:15:00,0.125
03/05/2024 09:30:00,0.127
03/05/2024 09:45:00,0.127
03/05/2024 10:00:00,0.128
03/05/2024 10:15:00,0.126
03/05/2024 10:30:00,0.126
03/05/2024 10:45:00,0.126
03/05/2024 11:00:00,0.127
03/05/2024 11:15:00,0.125
03/05/2024 11:30:00,0.121
03/05/2024 11:45:00,0.118
03/05/2024 12:00:00,0.118
03/05/2024 12:15:00,0.117
03/05/2024 12:30:00,0.117
03/05/2024 12:45:00,0.117
03/05/2024 13:00:00,0.121
03/05/2024 13:15:00,0.124
03/05/2024 13:30:00,0.123
03/05/2024 13:45:00,0.123
03/05/2024 14:00:00,0.123
03/05/2024 14:15:00,0.125
03/05/2024 14:30:00,0.124
03/05/2024 14:45:00,0.123
03/05/2024 15:00:00,0.122
03/05/2024 15:15:00,0.121
03/05/2024 15:30:00,0.121
03/05/2024 15:45:00,0.121
03/05/2024 16:00:00,0.12
03/05/2024 16:15:00,0.119
03/05/2024 16:30:00,0.12
03/05/2024 16:45:00,0.12
03/05/2024 17:00:00,0.118
03/05/2024 17:15:00,0.119
03/05/2024 17:30:00,0.118
03/05/2024 17:45:00,0.117
03/05/2024 18:00:00,0.116
03/05/2024 18:15:00,0.114
03/05/2024 18:30:00,0.114
03/05/2024 18:45:00,0.114
03/05/2024 19:00:00,0.113
03/05/2024 19:15:00,0.112
03/05/2024 19:30:00,0.112
03/05/2024 19:45:00,0.111
03/05/2024 20:00:00,0.11
03/05/2024 20:15:00,0.11
03/05/2024 20:30:00,0.11
03/05/2024 20:45:00,0.109
03/05/2024 21:00:00,0.109
03/05/2024 21:15:00,0.109
03/05/2024 21:30:00,0.109
03/05/2024 21:45:00,0.109
03/05/2024 22:00:00,0.109
03/05/2024 22:15:00,0.109
03/05/2024 22:30:00,0.109
03/05/2024 22:45:00,0.109
03/05/2024 23:00:00,0.109
03/05/2024 23:15:00,0.109
03/05/2024 23:30:00,0.11
03/05/2024 23:45:00,0.11
04/05/2024 00:00:00,0.11
04/05/2024 00:15:00,0.11
04/05/2024 00:30:00,0.11
04/05/2024 00:45:00,0.111
04/05/2024 01:00:00,0.11
04/05/2024 01:15:00,0.111
04/05/2024 01:30:00,0.11
04/05/2024 01:45:00,0.111
04/05/2024 02:00:00,0.112
04/05/2024 02:15:00,0.112
04/05/2024 02:30:00,0.113
04/05/2024 02:45:00,0.113
04/05/2024 03:00:00,0.113
04/05/2024 03:15:00,0.113
04/05/2024 03:30:00,0.113
04/05/2024 03:45:00,0.114
04/05/2024 04:00:00,0.113
04/05/2024 04:15:00,0.114
04/05/2024 04:30:00,0.114
04/05/2024 04:45:00,0.114
04/05/2024 05:00:00,0.115
04/05/2024 05:15:00,0.114
04/05/2024 05:30:00,0.115
04/05/2024 05:45:00,0.115
04/05/2024 06:00:00,0.115
04/05/2024 06:15:00,0.115
04/05/2024 06:30:00,0.116
04/05/2024 06:45:00,0.115
04/05/2024 07:00:00,0.117
04/05/2024 07:15:00,0.116
04/05/2024 07:30:00,0.116
04/05/2024 07:45:00,0.117
04/05/2024 08:00:00,0.117
04/05/2024 08:15:00,0.117
04/05/2024 08:30:00,0.117
04/05/2024 08:45:00,0.118
04/05/2024 09:00:00,0.117
04/05/2024 09:15:00,0.118
04/05/2024 09:30:00,0.118
04/05/2024 09:45:00,0.117
04/05/2024 10:00:00,0.118
04/05/2024 10:15:00,0.118
04/05/2024 10:30:00,0.118
04/05/2024 10:45:00,0.118
04/05/2024 11:00:00,0.118
04/05/2024 11:15:00,0.119
04/05/2024 11:30:00,0.118
04/05/2024 11:45:00,0.119
04/05/2024 12:00:00,0.118
04/05/2024 12:15:00,0.119
04/05/2024 12:30:00,0.121
04/05/2024 12:45:00,0.121
04/05/2024 13:00:00,0.122
04/05/2024 13:15:00,0.122
04/05/2024 13:30:00,0.122
04/05/2024 13:45:00,0.121
04/05/2024 14:00:00,0.122
04/05/2024 14:15:00,0.123
04/05/2024 14:30:00,0.121
04/05/2024 14:45:00,0.122
04/05/2024 15:00:00,0.121
04/05/2024 15:15:00,0.122
04/05/2024 15:30:00,0.122
04/05/2024 15:45:00,0.122
04/05/2024 16:00:00,0.122
04/05/2024 16:15:00,0.121
04/05/2024 16:30:00,0.122
04/05/2024 16:45:00,0.122
04/05/2024 17:00:00,0.122
04/05/2024 17:15:00,0.122
04/05/2024 17:30:00,0.122
04/05/2024 17:45:00,0.122
04/05/2024 18:00:00,0.122
04/05/2024 18:15:00,0.121
04/05/2024 18:30:00,0.122
04/05/2024 18:45:00,0.122
04/05/2024 19:00:00,0.122
04/05/2024 19:15:00,0.123
04/05/2024 19:30:00,0.123
04/05/2024 19:45:00,0.122
04/05/2024 20:00:00,0.122
04/05/2024 20:15:00,0.123
04/05/2024 20:30:00,0.123
04/05/2024 20:45:00,0.122
04/05/2024 21:00:00,0.122
04/05/2024 21:15:00,0.123
04/05/2024 21:30:00,0.122
04/05/2024 21:45:00,0.122
04/05/2024 22:00:00,0.123
04/05/2024 22:15:00,0.122
04/05/2024 22:30:00,0.123
04/05/2024 22:45:00,0.123
04/05/2024 23:00:00,0.123
04/05/2024 23:15:00,0.123
04/05/2024 23:30:00,0.122
04/05/2024 23:45:00,0.122
05/05/2024 00:00:00,0.122
05/05/2024 00:15:00,0.123
05/05/2024 00:30:00,0.123
05/05/2024 00:45:00,0.123
05/05/2024 01:00:00,0.124
05/05/2024 01:15:00,0.123
05/05/2024 01:30:00,0.123
05/05/2024 01:45:00,0.123
05/05/2024 02:00:00,0.123
05/05/2024 02:15:00,0.123
05/05/2024 02:30:00,0.123
05/05/2024 02:45:00,0.124
05/05/2024 03:00:00,0.124
05/05/2024 03:15:00,0.124
05/05/2024 03:30:00,0.124
05/05/2024 03:45:00,0.124
05/05/2024 04:00:00,0.124
05/05/2024 04:15:00,0.124
05/05/2024 04:30:00,0.124
05/05/2024 04:45:00,0.123
05/05/2024 05:00:00,0.123
05/05/2024 05:15:00,0.123
05/05/2024 05:30:00,0.124
05/05/2024 05:45:00,0.124
05/05/2024 06:00:00,0.124
05/05/2024 06:15:00,0.124
05/05/2024 06:30:00,0.123
05/05/2024 06:45:00,0.123
05/05/2024 07:00:00,0.123
05/05/2024 07:15:00,0.122
05/05/2024 07:30:00,0.123
05/05/2024 07:45:00,0.122
05/05/2024 08:00:00,0.122
05/05/2024 08:15:00,0.122
05/05/2024 08:30:00,0.123
05/05/2024 08:45:00,0.123
05/05/2024 09:00:00,0.122
05/05/2024 09:15:00,0.123
05/05/2024 09:30:00,0.122
05/05/2024 09:45:00,0.122
05/05/2024 10:00:00,0.122
05/05/2024 10:15:00,0.122
05/05/2024 10:30:00,0.122
05/05/2024 10:45:00,0.122
05/05/2024 11:00:00,0.123
05/05/2024 11:15:00,0.122
05/05/2024 11:30:00,0.122
05/05/2024 11:45:00,0.122
05/05/2024 12:00:00,0.122
05/05/2024 12:15:00,0.122
05/05/2024 12:30:00,0.122
05/05/2024 12:45:00,0.122
05/05/2024 13:00:00,0.121
05/05/2024 13:15:00,0.122
05/05/2024 13:30:00,0.122
05/05/2024 13:45:00,0.121
05/05/2024 14:00:00,0.121
05/05/2024 14:15:00,0.121
05/05/2024 14:30:00,0.121
05/05/2024 14:45:00,0.12
05/05/2024 15:00:00,0.121
05/05/2024 15:15:00,0.121
05/05/2024 15:30:00,0.12
05/05/2024 15:45:00,0.121
05/05/2024 16:00:00,0.121
05/05/2024 16:15:00,0.453
05/05/2024 16:30:00,0.471
05/05/2024 16:45:00,0.457
05/05/2024 17:00:00,0.451
05/05/2024 17:15:00,0.441
05/05/2024 17:30:00,0.421
05/05/2024 17:45:00,0.405
05/05/2024 18:00:00,0.389
05/05/2024 18:15:00,0.373
05/05/2024 18:30:00,0.359
05/05/2024 18:45:00,0.345
05/05/2024 19:00:00,0.334
